FW8218 Weather Reports


time (UTC)temp
C
wind
direction
speed
KPH
gust
KPH
rain 1hr
cm
rain 24hr
cm
rain mn
cm
humidity
%
barometer
mb
20260507103217 14 272 6.4 16.1 0.00 0.00 0.00 60 1016.4
20260507102708 14 338 6.4 16.1 0.00 0.00 0.00 60 1016.5
20260507102218 14 336 6.4 14.5 0.00 0.00 0.00 62 1016.4
20260507101717 14 355 6.4 14.5 0.00 0.00 0.00 61 1016.5
20260507101210 15 306 3.2 14.5 0.00 0.00 0.00 60 1016.4
20260507100719 15 309 4.8 16.1 0.00 0.00 0.00 61 1016.4
20260507100208 14 333 9.7 16.1 0.00 0.00 0.00 61 1016.4
20260507095713 14 310 8.0 16.1 0.00 0.00 0.00 61 1016.4
20260507095213 14 313 6.4 16.1 0.00 0.00 0.00 61 1016.3
20260507094719 14 290 6.4 16.1 0.00 0.00 0.00 60 1016.3
20260507094233 14 324 4.8 16.1 0.00 0.00 0.00 60 1016.3
20260507093707 14 355 4.8 12.9 0.00 0.00 0.00 60 1016.2
20260507092719 14 315 4.8 14.5 0.00 0.00 0.00 61 1016.2
20260507092219 14 28 4.8 14.5 0.00 0.00 0.00 61 1016.1
20260507091707 14 321 4.8 14.5 0.00 0.00 0.00 61 1016.1
20260507090718 14 355 6.4 14.5 0.00 0.00 0.00 60 1016.0
20260507090216 14 293 4.8 14.5 0.00 0.00 0.00 59 1016.0
20260507085717 13 301 3.2 9.7 0.00 0.00 0.00 61 1015.9
20260507085212 13 28 3.2 14.5 0.00 0.00 0.00 61 1015.9
20260507084708 14 22 3.2 14.5 0.00 0.00 0.00 58 1016.0
20260507084213 14 68 4.8 14.5 0.00 0.00 0.00 54 1015.9
20260507083707 14 75 4.8 14.5 0.00 0.00 0.00 55 1016.0
20260507083206 14 86 4.8 14.5 0.00 0.00 0.00 56 1015.9
20260507082220 14 67 3.2 8.0 0.00 0.00 0.00 57 1015.9
20260507081715 13 69 1.6 8.0 0.00 0.00 0.00 59 1016.0
20260507081206 13 340 3.2 8.0 0.00 0.00 0.00 60 1016.0
20260507080212 13 71 1.6 11.3 0.00 0.00 0.00 60 1015.9
20260507075713 13 114 3.2 11.3 0.00 0.00 0.00 60 1015.8
20260507075216 13 82 3.2 12.9 0.00 0.00 0.00 60 1015.9
20260507074711 13 94 3.2 12.9 0.00 0.00 0.00 61 1015.8
20260507074207 13 80 3.2 11.3 0.00 0.00 0.00 61 1015.8
20260507073708 12 74 4.8 11.3 0.00 0.00 0.00 63 1015.8
20260507073209 12 110 4.8 14.5 0.00 0.00 0.00 63 1015.7
20260507072709 12 58 4.8 14.5 0.00 0.00 0.00 63 1015.8
20260507072210 12 32 3.2 12.9 0.00 0.00 0.00 64 1015.8
20260507071706 12 48 3.2 12.9 0.00 0.00 0.00 66 1015.8
20260507071217 11 0 4.8 12.9 0.00 0.00 0.00 64 1015.7
20260507070717 12 32 4.8 12.9 0.00 0.00 0.00 66 1015.8
20260507070219 12 65 4.8 12.9 0.00 0.00 0.00 68 1015.8
20260507065711 11 92 3.2 9.7 0.00 0.00 0.00 70 1015.7
20260507065214 11 58 3.2 8.0 0.00 0.00 0.00 70 1015.7
20260507064719 11 0 3.2 9.7 0.00 0.00 0.00 72 1015.7
20260507064216 11 94 3.2 9.7 0.00 0.00 0.00 71 1015.7
20260507063718 11 31 3.2 8.0 0.00 0.00 0.00 72 1015.7
20260507063213 11 44 3.2 8.0 0.00 0.00 0.00 73 1015.7
20260507062713 11 68 1.6 8.0 0.00 0.00 0.00 73 1015.7
20260507062213 11 75 3.2 8.0 0.00 0.00 0.00 73 1015.7
20260507061710 11 86 3.2 8.0 0.00 0.00 0.00 73 1015.7
20260507061207 10 65 3.2 8.0 0.00 0.00 0.00 73 1015.7
20260507060708 10 78 3.2 8.0 0.00 0.00 0.00 73 1015.7
20260507060206 10 86 1.6 8.0 0.00 0.00 0.00 74 1015.7
20260507055712 10 67 1.6 8.0 0.00 0.00 0.00 75 1015.7
20260507055211 10 38 1.6 8.0 0.00 0.00 0.00 75 1015.5
20260507054713 10 46 3.2 8.0 0.00 0.00 0.00 75 1015.5
20260507054213 9 65 3.2 8.0 0.00 0.00 0.00 76 1015.5
20260507053714 9 22 0.0 4.8 0.00 0.00 0.00 76 1015.4
20260507052719 9 350 0.0 4.8 0.00 0.00 0.00 78 1015.3
20260507052207 8 350 0.0 4.8 0.00 0.00 0.00 79 1015.3
20260507051211 8 350 1.6 6.4 0.00 0.00 0.00 80 1015.3
20260507050716 8 350 0.0 6.4 0.00 0.00 0.00 81 1015.2
20260507050212 8 350 0.0 6.4 0.00 0.00 0.00 82 1015.2
20260507045716 7 28 0.0 3.2 0.00 0.00 0.00 82 1015.1
20260507045216 7 66 0.0 3.2 0.00 0.00 0.00 83 1015.1
20260507044715 7 66 0.0 3.2 0.00 0.00 0.00 83 1015.0
20260507044216 7 66 0.0 3.2 0.00 0.00 0.00 83 1014.9
20260507043710 7 66 0.0 3.2 0.00 0.00 0.00 83 1014.9
20260507043212 7 66 0.0 3.2 0.00 0.00 0.00 83 1014.8
20260507042712 7 66 0.0 4.8 0.00 0.00 0.00 83 1014.8
20260507042216 7 66 0.0 4.8 0.00 0.00 0.00 83 1014.8
20260507041711 7 66 0.0 4.8 0.00 0.00 0.00 83 1014.8
20260507041209 7 66 1.6 4.8 0.00 0.00 0.00 83 1014.7
20260507040715 7 66 1.6 6.4 0.00 0.00 0.00 83 1014.7
20260507040213 7 66 1.6 6.4 0.00 0.00 0.00 83 1014.6
20260507035711 7 50 1.6 6.4 0.00 0.00 0.00 83 1014.6
20260507035207 7 63 1.6 4.8 0.00 0.00 0.00 83 1014.6
20260507034719 7 43 0.0 4.8 0.00 0.00 0.00 83 1014.6
20260507033711 7 43 0.0 6.4 0.00 0.00 0.00 83 1014.6
20260507033209 7 355 1.6 6.4 0.00 0.00 0.00 83 1014.6
20260507032715 7 355 1.6 6.4 0.00 0.00 0.00 83 1014.6
20260507032212 7 355 0.0 6.4 0.00 0.00 0.00 83 1014.6
20260507031707 7 355 1.6 6.4 0.00 0.00 0.00 83 1014.5
20260507031205 7 45 1.6 6.4 0.00 0.00 0.00 83 1014.5
20260507030709 7 46 1.6 8.0 0.00 0.00 0.00 83 1014.4
20260507030207 7 57 3.2 8.0 0.00 0.00 0.00 83 1014.4
20260507025711 7 44 3.2 8.0 0.00 0.00 0.00 83 1014.3
20260507025208 7 38 3.2 9.7 0.00 0.00 0.00 83 1014.4
20260507024719 7 51 3.2 9.7 0.00 0.00 0.00 83 1014.3
20260507024209 7 57 3.2 9.7 0.00 0.00 0.00 83 1014.3
20260507023716 7 58 1.6 8.0 0.00 0.00 0.00 83 1014.3
20260507023206 7 70 1.6 8.0 0.00 0.00 0.00 83 1014.3
20260507022710 7 40 1.6 8.0 0.00 0.00 0.00 83 1014.3
20260507022213 7 45 1.6 8.0 0.00 0.00 0.00 83 1014.2
20260507021713 7 43 1.6 8.0 0.00 0.00 0.00 83 1014.2
20260507015714 7 344 1.6 9.7 0.00 0.00 0.00 82 1014.0
20260507015217 8 31 1.6 8.0 0.00 0.00 0.00 82 1014.0
20260507014707 8 5 3.2 8.0 0.00 0.00 0.00 82 1014.0
20260507014208 8 5 1.6 9.7 0.00 0.00 0.00 82 1013.9
20260507013212 8 30 3.2 11.3 0.00 0.00 0.00 82 1013.9
20260507012211 8 51 3.2 11.3 0.00 0.00 0.00 82 1013.9
20260507011730 8 5 3.2 8.0 0.00 0.00 0.00 82 1013.9
20260507011217 8 24 3.2 12.9 0.00 0.00 0.00 82 1013.9
20260507010708 8 30 3.2 12.9 0.00 0.00 0.00 82 1013.9
20260507005217 8 22 1.6 8.0 0.00 0.00 0.00 82 1013.8
20260507004210 8 42 1.6 6.4 0.00 0.00 0.00 82 1013.8
20260507003716 8 49 1.6 8.0 0.00 0.00 0.00 82 1013.8
20260507003210 8 329 3.2 9.7 0.00 0.00 0.00 81 1013.9
20260507002720 8 23 3.2 9.7 0.00 0.00 0.00 82 1013.9
20260507002207 8 22 3.2 12.9 0.00 0.00 0.00 82 1013.7
20260507001739 8 36 3.2 12.9 0.00 0.00 0.00 82 1013.8
20260507001208 8 11 3.2 16.1 0.00 0.00 0.00 81 1013.7
20260507000741 8 60 4.8 16.1 0.00 0.00 0.00 81 1013.7
20260507000206 8 51 4.8 9.7 0.00 0.00 0.00 81 1013.7
20260506235714 8 45 3.2 9.7 0.00 0.00 0.00 81 1013.7
20260506235218 9 24 3.2 9.7 0.00 0.00 0.00 81 1013.6
20260506234206 9 338 3.2 12.9 0.00 0.00 0.00 80 1013.7
20260506233218 9 55 4.8 14.5 0.00 0.00 0.00 80 1013.6
20260506232707 9 26 4.8 14.5 0.00 0.00 0.00 79 1013.5
20260506231717 9 55 3.2 14.5 0.00 0.00 0.00 78 1013.5
20260506231214 9 45 4.8 14.5 0.00 0.00 0.00 78 1013.5
20260506230206 10 61 4.8 14.5 0.00 0.00 0.00 77 1013.5
20260506225707 10 49 4.8 14.5 0.00 0.00 0.00 77 1013.5
20260506224706 10 28 6.4 14.5 0.00 0.00 0.00 76 1013.4
20260506224210 10 40 4.8 14.5 0.00 0.00 0.00 75 1013.4
20260506223219 10 55 4.8 12.9 0.00 0.00 0.00 74 1013.3
20260506222709 10 15 4.8 12.9 0.00 0.00 0.00 74 1013.3
20260506221719 10 23 3.2 14.5 0.00 0.00 0.00 73 1013.2
20260506221220 10 346 4.8 11.3 0.00 0.00 0.00 72 1013.2
20260506220708 10 47 3.2 11.3 0.00 0.00 0.00 72 1013.1
20260506220211 10 65 3.2 11.3 0.00 0.00 0.00 71 1013.1
20260506215713 10 32 3.2 12.9 0.00 0.00 0.00 71 1013.1
20260506215218 10 342 3.2 14.5 0.00 0.00 0.00 71 1013.1
20260506214710 10 21 3.2 14.5 0.00 0.00 0.00 70 1013.1
20260506214210 10 355 4.8 14.5 0.00 0.00 0.00 70 1013.0
20260506213719 11 355 3.2 11.3 0.00 0.00 0.00 70 1013.0
20260506213214 11 25 3.2 11.3 0.00 0.00 0.00 69 1013.0
20260506212708 11 52 3.2 11.3 0.00 0.00 0.00 69 1013.0
20260506212213 11 57 3.2 14.5 0.00 0.00 0.00 68 1012.9
20260506211712 11 34 4.8 14.5 0.00 0.00 0.00 68 1012.8
20260506211217 11 38 4.8 11.3 0.00 0.00 0.00 67 1012.8
20260506210231 11 0 3.2 12.9 0.00 0.00 0.00 66 1012.7
20260506205719 11 61 3.2 12.9 0.00 0.00 0.00 66 1012.7
20260506205219 11 51 3.2 14.5 0.00 0.00 0.00 66 1012.7
20260506204718 11 65 3.2 14.5 0.00 0.00 0.00 65 1012.7
20260506204205 11 50 3.2 14.5 0.00 0.00 0.00 65 1012.7
20260506202709 12 355 6.4 17.7 0.00 0.00 0.00 64 1012.5
20260506201708 12 41 8.0 17.7 0.00 0.00 0.00 63 1012.4
20260506201219 12 78 6.4 16.1 0.00 0.00 0.00 64 1012.3
20260506200719 12 71 4.8 16.1 0.00 0.00 0.00 64 1012.4
20260506200209 12 60 6.4 17.7 0.00 0.00 0.00 64 1012.3
20260506195716 12 36 6.4 17.7 0.00 0.00 0.00 64 1012.2
20260506194715 12 67 4.8 12.9 0.00 0.00 0.00 65 1012.1
20260506193711 12 29 3.2 16.1 0.00 0.00 0.00 66 1012.0
20260506193207 12 0 4.8 16.1 0.00 0.00 0.00 66 1012.0
20260506192712 12 76 8.0 16.1 0.00 0.00 0.00 66 1011.9
20260506192208 12 49 6.4 16.1 0.00 0.00 0.00 66 1011.9
20260506191717 12 56 4.8 14.5 0.00 0.00 0.00 67 1011.7
20260506191211 13 44 4.8 14.5 0.00 0.00 0.00 68 1011.7
20260506190735 13 21 3.2 14.5 0.00 0.00 0.00 67 1011.7
20260506190206 13 16 3.2 14.5 0.00 0.00 0.00 67 1011.6
20260506185706 13 28 3.2 14.5 0.00 0.00 0.00 65 1011.6
20260506185206 13 32 1.6 8.0 0.00 0.00 0.00 64 1011.4
20260506184713 13 27 3.2 11.3 0.00 0.00 0.00 64 1011.4
20260506184219 13 42 3.2 11.3 0.00 0.00 0.00 65 1011.3
20260506183710 13 39 3.2 11.3 0.00 0.00 0.00 65 1011.3
20260506183218 13 28 3.2 12.9 0.00 0.00 0.00 66 1011.2
20260506182710 12 55 3.2 12.9 0.00 0.00 0.00 67 1011.1
20260506182215 12 334 3.2 12.9 0.00 0.00 0.00 69 1011.0
20260506181717 12 5 3.2 16.1 0.00 0.00 0.00 70 1011.0
20260506180711 12 345 6.4 16.1 0.00 0.00 0.00 71 1010.9
20260506180212 12 40 6.4 16.1 0.00 0.00 0.00 71 1010.8
20260506175717 12 11 8.0 19.3 0.00 0.00 0.00 71 1010.8
20260506175212 12 335 8.0 19.3 0.00 0.00 0.00 72 1010.7
20260506174712 12 15 6.4 19.3 0.00 0.00 0.00 72 1010.7
20260506174218 12 30 8.0 17.7 0.00 0.00 0.00 72 1010.6
20260506173209 12 342 8.0 19.3 0.00 0.00 0.00 73 1010.5
20260506172211 12 336 8.0 20.9 0.00 0.00 0.00 73 1010.5
20260506171712 12 5 9.7 22.5 0.00 0.00 0.00 73 1010.5
20260506170707 12 334 9.7 24.1 0.00 0.00 0.00 73 1010.4
20260506165705 12 336 9.7 19.3 0.00 0.00 0.00 72 1010.3
20260506165207 12 13 9.7 19.3 0.00 0.00 0.00 72 1010.3
20260506164715 12 17 8.0 19.3 0.00 0.00 0.00 72 1010.3
20260506164210 12 338 8.0 19.3 0.00 0.00 0.00 72 1010.2
20260506163218 12 61 8.0 25.7 0.00 0.00 0.00 72 1010.2
20260506162717 12 29 9.7 25.7 0.00 0.00 0.00 72 1010.2
20260506162224 12 55 9.7 20.9 0.00 0.00 0.00 72 1010.2
20260506161713 12 335 11.3 20.9 0.00 0.00 0.00 72 1010.2
20260506161217 12 328 9.7 20.9 0.00 0.00 0.00 72 1010.2
20260506160714 12 5 8.0 20.9 0.00 0.00 0.00 71 1010.2
20260506160222 12 329 9.7 24.1 0.00 0.00 0.00 71 1010.2
20260506155717 12 348 12.9 25.7 0.00 0.00 0.00 71 1010.1
20260506154719 13 350 12.9 29.0 0.00 0.00 0.00 71 1010.1
20260506154218 13 334 14.5 29.0 0.00 0.00 0.00 71 1010.2
20260506153715 13 319 14.5 29.0 0.00 0.00 0.00 70 1010.2
20260506153216 13 349 9.7 24.1 0.00 0.00 0.00 70 1010.2
20260506152710 13 17 12.9 24.1 0.00 0.00 0.00 70 1010.2
20260506152206 13 5 14.5 24.1 0.00 0.00 0.00 69 1010.1
20260506151206 13 343 11.3 27.4 0.00 0.00 0.00 69 1010.0
20260506150731 13 343 11.3 27.4 0.00 0.00 0.00 69 1010.0
20260506150210 13 327 11.3 25.7 0.00 0.00 0.00 68 1010.0
20260506145713 14 327 9.7 25.7 0.00 0.00 0.00 68 1010.1
20260506145209 13 0 11.3 32.2 0.00 0.00 0.00 67 1010.0
20260506143713 13 341 9.7 27.4 0.00 0.00 0.00 68 1009.9
20260506143217 13 346 11.3 27.4 0.00 0.00 0.00 69 1009.9
20260506142706 14 338 9.7 27.4 0.00 0.00 0.00 67 1010.0
20260506142216 14 355 8.0 27.4 0.00 0.00 0.00 68 1010.0
20260506141217 14 0 11.3 27.4 0.00 0.00 0.00 68 1010.0
20260506140713 15 5 9.7 27.4 0.00 0.00 0.00 68 1010.0
20260506140212 14 307 12.9 33.8 0.00 0.00 0.00 69 1010.0
20260506135711 14 24 14.5 33.8 0.00 0.00 0.00 68 1010.0
20260506135210 14 19 12.9 33.8 0.00 0.00 0.00 69 1010.0
20260506134710 15 355 11.3 25.7 0.00 0.00 0.00 69 1009.9
20260506134212 14 322 11.3 25.7 0.00 0.00 0.00 70 1009.9
20260506133710 13 28 12.9 27.4 0.00 0.00 0.00 71 1009.9
20260506133212 13 333 11.3 27.4 0.00 0.00 0.00 72 1010.0
20260506132216 13 15 11.3 27.4 0.00 0.00 0.00 73 1009.9
20260506130712 13 12 9.7 25.7 0.00 0.00 0.00 74 1010.0
20260506130212 13 308 11.3 29.0 0.00 0.00 0.00 74 1009.9
20260506125705 13 340 12.9 29.0 0.00 0.00 0.00 74 1009.7
20260506125218 13 345 11.3 27.4 0.00 0.00 0.00 72 1009.8
20260506124214 13 344 11.3 27.4 0.00 0.00 0.00 73 1009.7
20260506123715 13 319 11.3 27.4 0.00 0.00 0.00 71 1009.7
20260506123214 14 0 11.3 24.1 0.00 0.00 0.00 69 1009.6
20260506122712 13 283 11.3 25.7 0.00 0.00 0.00 71 1009.6
20260506122206 13 326 11.3 25.7 0.00 0.00 0.00 70 1009.6
20260506121219 13 279 11.3 27.4 0.00 0.00 0.00 72 1009.7
20260506120716 13 340 12.9 27.4 0.00 0.00 0.00 72 1009.6
20260506120211 13 312 12.9 27.4 0.00 0.00 0.00 70 1009.5
20260506115711 13 324 11.3 25.7 0.00 0.00 0.00 70 1009.5
20260506115215 13 355 9.7 25.7 0.00 0.00 0.00 70 1009.6
20260506114712 13 5 11.3 25.7 0.00 0.00 0.00 69 1009.6
20260506114209 13 5 12.9 25.7 0.00 0.00 0.00 69 1009.6
20260506113717 13 346 9.7 22.5 0.00 0.00 0.00 69 1009.6
20260506112712 13 18 9.7 27.4 0.00 0.00 0.00 72 1009.5
20260506112219 13 346 11.3 27.4 0.00 0.00 0.00 71 1009.5
20260506111714 13 348 12.9 27.4 0.00 0.00 0.00 70 1009.5
20260506111207 13 28 11.3 27.4 0.00 0.00 0.00 69 1009.6
20260506110714 13 53 9.7 24.1 0.00 0.00 0.00 70 1009.6
20260506105711 13 30 11.3 24.1 0.00 0.00 0.00 71 1009.5
20260506105211 13 331 11.3 20.9 0.00 0.00 0.00 71 1009.5
20260506104719 13 11 11.3 27.4 0.00 0.00 0.00 71 1009.4
20260506104208 13 355 9.7 27.4 0.00 0.00 0.00 71 1009.5
20260506103712 13 355 9.7 30.6 0.00 0.00 0.00 72 1009.5